[[{"header":{"parameterUnit":"m.s-1","parameterCategory":1,"la1":30.2991,"la2":30.254,"lo1":-89.0895,"lo2":-89.0444,"dy":0.0017,"dx":0.0017,"nx":28,"ny":28,"refTime":"2026-01-08T03:00:00:Z","depth":0,"parameterNumber":2,"parameterNumberName":"U-component_of_WINDS"},"data":[0,0,0,0,0,0,0,0,0,0,0,0,0,0,0,0,0,0,0,0,0,0,0,0,0,0,0,0,0,0,0,0,0,0,0,0,0,0,0,0,0,0,0,0,0,0,0,0,0,0,0,0,0,0,0,0,0,0,-3.1818,-3.1819,0,-3.1851,-3.1851,-3.1851,-3.1822,-3.1821,-3.182,-3.1819,-3.1851,-3.1853,-3.1855,0,0,0,0,0,0,0,0,0,0,0,0,0,-3.173,-3.1732,-3.1818,-3.1819,-3.1819,-3.1851,-3.1851,-3.1851,-3.1822,-3.1821,-3.1819,-3.1818,-3.185,-3.1852,-3.1855,0,0,0,0,0,0,0,0,0,0,0,0,0,-3.1766,-3.1733,-3.1818,-3.1808,-3.1808,-3.185,-3.1851,-3.1852,-3.1823,-3.1821,-3.1819,-3.1817,-3.1849,-3.1852,-3.1855,-3.1909,0,0,-3.1864,-3.1865,0,0,0,0,0,0,0,0,-3.1764,-3.1769,-3.1809,-3.1809,-3.1808,-3.183,-3.1832,-3.1871,-3.1823,-3.1817,-3.1818,-3.1816,-3.1845,-3.1849,-3.1858,-3.191,-3.1912,-3.1864,-3.1866,-3.1867,-3.1868,0,0,0,0,0,0,0,-3.1762,-3.1768,-3.1831,-3.181,-3.1809,-3.1802,-3.1805,-3.1839,-3.1841,-3.1817,-3.1815,-3.182,-3.1845,-3.1856,-3.1859,-3.1912,-3.1864,-3.1867,-3.1869,-3.187,-3.201,-3.2012,0,0,0,0,0,0,-3.176,-3.1766,-3.183,-3.1832,-3.1781,-3.1805,-3.1808,-3.1825,-3.184,-3.1841,-3.1821,-3.1818,-3.1852,-3.1856,-3.186,-3.1923,-3.1867,-3.187,-3.1872,-3.2008,-3.201,-3.2012,0,0,0,0,0,0,-3.1759,-3.1766,-3.1829,-3.1798,-3.1806,-3.1808,-3.1827,-3.1827,-3.1838,-3.1843,-3.1843,-3.1832,-3.185,-3.1856,-3.1897,-3.1924,-3.1871,-3.1874,-3.2006,-3.2009,-3.2011,-3.2051,0,0,0,0,0,0,-3.1756,-3.1766,-3.1786,-3.1799,-3.1808,-3.1865,-3.1829,-3.1829,-3.1843,-3.1839,-3.1853,-3.1854,-3.1849,-3.1893,-3.19,-3.1927,-3.1876,-3.2003,-3.2007,-3.201,-3.2047,-3.2055,-3.2061,0,0,0,0,0,-3.1753,-3.1796,-3.1788,-3.1795,-3.1833,-3.1867,-3.1872,-3.1866,-3.1845,-3.1866,-3.1869,-3.1853,-3.192,-3.1897,-3.1905,-3.1934,-3.2001,-3.2006,-3.201,-3.2044,-3.2053,-3.2061,0,0,0,0,0,0,-3.1786,-3.1798,-3.1788,-3.1837,-3.1851,-3.1862,-3.1887,-3.1876,-3.1896,-3.1892,-3.1884,-3.1887,-3.193,-3.1936,-3.191,-3.1986,-3.1957,-3.1964,-3.198,-3.1989,-3.1996,-3.1993,-3.1879,0,0,0,0,0,-3.1799,-3.1826,-3.1834,-3.1876,-3.1884,-3.1885,-3.1899,-3.1893,-3.1908,-3.1913,-3.192,-3.1934,-3.1959,-3.1975,-3.1997,-3.2048,-3.2051,-3.2072,-3.2079,-3.2085,-3.209,-3.2117,-3.2126,-3.2027,-3.2027,-3.2027,0,0,-3.1826,-3.1835,-3.1852,-3.1883,-3.1893,-3.192,-3.189,-3.192,-3.194,-3.1918,-3.1957,-3.1963,-3.1978,-3.2024,-3.2045,-3.203,-3.2118,-3.2091,-3.2095,-3.2097,-3.2122,-3.2131,-3.214,-3.203,-3.2029,-3.2029,0,0,-3.1888,-3.1899,-3.1934,-3.1946,-3.1962,-3.1962,-3.1971,-3.1984,-3.1987,-3.2026,-3.201,-3.2034,-3.2076,-3.2088,-3.2099,-3.2167,-3.2153,-3.2175,-3.2211,-3.2237,-3.2245,-3.2252,-3.2275,-3.2284,-3.218,-3.218,-3.218,0,-3.1919,-3.1959,-3.1954,-3.1985,-3.1999,-3.1981,-3.2017,-3.2028,-3.2051,-3.2061,-3.2045,-3.2097,-3.2107,-3.2155,-3.2172,-3.2182,-3.2191,-3.2172,-3.2245,-3.2251,-3.2258,-3.228,-3.2288,-3.2183,-3.2182,-3.2182,-3.2182,0,-3.1996,-3.2025,-3.2052,-3.2074,-3.2091,-3.2125,-3.2124,-3.2142,-3.2135,-3.2137,-3.2178,-3.2188,-3.2213,-3.2224,-3.2218,-3.2272,-3.2262,-3.2246,-3.2216,-3.227,-3.229,-3.2299,-3.2186,-3.2185,-3.2184,-3.2184,0,0,-3.2078,-3.2098,-3.2108,-3.2118,-3.2136,-3.2157,-3.219,-3.2215,-3.2229,-3.2247,-3.2273,-3.231,-3.2295,-3.2308,-3.2303,-3.2326,-3.2378,-3.2307,-3.2307,-3.2319,-3.2437,-3.2448,-3.2458,-3.237,-3.2372,-3.2373,-3.2435,0,-3.214,-3.2197,-3.2193,-3.2247,-3.2273,-3.2257,-3.2286,-3.2299,-3.2303,-3.2325,-3.2329,-3.2354,-3.2333,-3.2341,-3.2363,-3.2367,-3.2402,-3.2363,-3.2394,-3.2395,-3.2388,-3.2469,-3.2481,-3.2539,-3.2443,-3.2445,-3.2446,0,-3.2219,-3.2239,-3.2295,-3.2309,-3.232,-3.2345,-3.2367,-3.2389,-3.2404,-3.2405,-3.242,-3.2412,-3.2445,-3.2416,-3.2461,-3.2435,-3.2448,-3.2452,-3.2454,-3.2455,-3.2422,-3.2471,-3.2557,-3.2566,-3.2459,-3.2458,-3.2457,0,-3.2272,-3.2313,-3.2351,-3.2361,-3.2378,-3.2396,-3.2404,-3.2418,-3.2433,-3.2452,-3.2462,-3.2485,-3.2497,-3.2515,-3.2513,-3.2492,-3.2558,-3.253,-3.2559,-3.2559,-3.2572,-3.2571,-3.266,-3.2583,-3.2583,-3.2583,-3.2583,0,-3.234,-3.2375,-3.2375,-3.2399,-3.2437,-3.2433,-3.2471,-3.2477,-3.249,-3.2514,-3.2502,-3.2525,-3.2522,-3.2545,-3.2544,-3.2581,-3.2587,-3.2588,-3.2587,-3.2588,-3.2588,-3.2595,-3.259,-3.2585,-3.2585,-3.2584,-3.2584,0,-3.2404,-3.2406,-3.2447,-3.2461,-3.2465,-3.2492,-3.2503,-3.2526,-3.2529,-3.256,-3.2567,-3.2571,-3.2598,-3.2598,-3.2628,-3.2628,-3.2672,-3.2667,-3.2667,-3.2665,-3.2694,-3.2691,-3.279,-3.2802,-3.2719,-3.2719,-3.272,0,-3.2447,-3.2473,-3.249,-3.2505,-3.2514,-3.254,-3.2555,-3.2552,-3.2569,-3.2588,-3.2608,-3.2634,-3.2654,-3.2698,-3.2703,-3.2727,-3.2721,-3.2754,-3.2724,-3.2725,-3.272,-3.2718,-3.272,-3.276,-3.276,-3.2761,-3.2762,0,-3.2522,-3.2522,-3.2544,-3.2567,-3.2586,-3.2604,-3.262,-3.2634,-3.2633,-3.2652,-3.2679,-3.2695,-3.2727,-3.2752,-3.2775,-3.2783,-3.2772,-3.2772,-3.2779,-3.278,-3.2778,-3.2778,-3.2681,-3.2769,-3.2768,-3.2768,-3.2767,-3.2767,-3.2576,-3.2598,-3.2613,-3.2639,-3.2651,-3.2667,-3.2688,-3.2694,-3.2717,-3.2742,-3.274,-3.277,-3.2785,-3.2814,-3.2824,-3.2848,-3.2836,-3.2848,-3.285,-3.2853,-3.2855,-3.2776,-3.2852,-3.2852,-3.2852,-3.2851,-3.2851,0,-3.2649,-3.2658,-3.2682,-3.2705,-3.2725,-3.2715,-3.2733,-3.275,-3.2776,-3.2792,-3.2812,-3.2843,-3.2868,-3.2876,-3.29,-3.2917,-3.2913,-3.2924,-3.2921,-3.2923,-3.2865,-3.2855,-3.2927,-3.2927,-3.2927,-3.2927,-3.2927,-3.2926,-3.2689,-3.2726,-3.2728,-3.2771,-3.278,-3.281,-3.2821,-3.2835,-3.2847,-3.2882,-3.2903,-3.2909,-3.2921,-3.2946,-3.2968,-3.297,-3.2978,-3.2991,-3.299,-3.2935,-3.2927,-3.292,-3.2911,-3.2993,-3.2993,-3.3046,-3.3047,-3.3047]},{"header":{"parameterUnit":"m.s-1","parameterCategory":1,"la1":30.2991,"la2":30.254,"lo1":-89.0895,"lo2":-89.0444,"dy":0.0017,"dx":0.0017,"nx":28,"ny":28,"refTime":"2026-01-08T03:00:00:Z","depth":0,"parameterNumber":3,"parameterNumberName":"V-component_of_WINDS"},"data":[0,0,0,0,0,0,0,0,0,0,0,0,0,0,0,0,0,0,0,0,0,0,0,0,0,0,0,0,0,0,0,0,0,0,0,0,0,0,0,0,0,0,0,0,0,0,0,0,0,0,0,0,0,0,0,0,0,0,3.1307,3.1308,0,3.1387,3.1388,3.1389,3.1407,3.1407,3.1406,3.1406,3.1487,3.149,3.1492,0,0,0,0,0,0,0,0,0,0,0,0,0,3.117,3.1172,3.1307,3.1308,3.1309,3.1387,3.1388,3.1389,3.1407,3.1407,3.1406,3.1405,3.1486,3.1489,3.1493,0,0,0,0,0,0,0,0,0,0,0,0,0,3.1238,3.1173,3.1307,3.1327,3.133,3.1387,3.1388,3.139,3.1407,3.1407,3.1406,3.1405,3.1485,3.1489,3.1493,3.1535,0,0,3.1505,3.1507,0,0,0,0,0,0,0,0,3.1234,3.1243,3.1323,3.1326,3.1329,3.1386,3.137,3.1438,3.1408,3.1378,3.1406,3.1405,3.1454,3.1461,3.1478,3.1539,3.1542,3.1506,3.1508,3.151,3.1511,0,0,0,0,0,0,0,3.1229,3.1239,3.1339,3.1324,3.1328,3.1333,3.1342,3.1383,3.142,3.138,3.1382,3.1391,3.1456,3.1474,3.148,3.1544,3.1506,3.1509,3.1512,3.1513,3.1647,3.1648,0,0,0,0,0,0,3.1221,3.1235,3.1336,3.1341,3.1278,3.1336,3.1346,3.1369,3.1419,3.1426,3.1392,3.1392,3.1467,3.1475,3.1483,3.1538,3.151,3.1514,3.1516,3.1646,3.1647,3.1649,0,0,0,0,0,0,3.1218,3.123,3.1333,3.1289,3.1302,3.1339,3.1365,3.1371,3.1389,3.1428,3.1435,3.1404,3.1467,3.1477,3.1523,3.1541,3.1516,3.1519,3.1645,3.1646,3.1648,3.1647,0,0,0,0,0,0,3.1214,3.1228,3.1244,3.1289,3.1304,3.1371,3.1366,3.1373,3.1396,3.1397,3.1441,3.1447,3.1467,3.1517,3.1527,3.1546,3.1522,3.1643,3.1645,3.1647,3.1645,3.1648,3.1651,0,0,0,0,0,3.1209,3.124,3.1245,3.1257,3.1325,3.1372,3.1381,3.1403,3.1397,3.1414,3.144,3.1446,3.1537,3.1521,3.1533,3.1553,3.1642,3.1645,3.1647,3.1644,3.1648,3.1651,0,0,0,0,0,0,3.1195,3.1246,3.1252,3.1298,3.1331,3.1375,3.1397,3.1406,3.144,3.1439,3.1465,3.1475,3.152,3.1541,3.1523,3.1599,3.1589,3.1594,3.1583,3.1587,3.1589,3.1584,3.1526,0,0,0,0,0,3.1198,3.1232,3.1274,3.1311,3.1327,3.1359,3.138,3.1395,3.143,3.1443,3.1472,3.1505,3.1542,3.1565,3.1601,3.1648,3.166,3.1668,3.1671,3.1673,3.1677,3.1707,3.1712,3.1657,3.1657,3.1657,0,0,3.1203,3.1235,3.1254,3.1309,3.1336,3.1372,3.1371,3.1407,3.1434,3.1449,3.1495,3.1517,3.1556,3.1604,3.1626,3.1623,3.1695,3.1676,3.1677,3.1681,3.171,3.1716,3.172,3.1659,3.1658,3.1658,0,0,3.1231,3.1258,3.1293,3.1321,3.1362,3.1384,3.1392,3.1436,3.1452,3.1498,3.1511,3.1543,3.1605,3.1633,3.1655,3.1698,3.1705,3.1708,3.1722,3.1751,3.1755,3.176,3.1777,3.1783,3.1712,3.1712,3.1712,0,3.1233,3.1286,3.131,3.1347,3.1372,3.1388,3.1425,3.145,3.15,3.1518,3.1513,3.1593,3.162,3.1676,3.1687,3.1703,3.1715,3.1704,3.1753,3.1757,3.1761,3.1778,3.1785,3.1712,3.1712,3.1712,3.1712,0,3.1287,3.1325,3.1348,3.1398,3.1425,3.1462,3.1492,3.1517,3.1529,3.1552,3.1601,3.1634,3.1678,3.1692,3.1704,3.1751,3.1748,3.1748,3.1739,3.1767,3.1783,3.179,3.1713,3.1713,3.1713,3.1713,0,0,3.1308,3.1373,3.1381,3.1406,3.1454,3.1483,3.1521,3.1565,3.1587,3.1622,3.1656,3.1709,3.171,3.1736,3.1751,3.1776,3.1811,3.1774,3.1775,3.1781,3.1868,3.1869,3.1876,3.1816,3.1817,3.1818,3.1865,0,3.1344,3.1413,3.1437,3.1495,3.1531,3.1548,3.1582,3.1615,3.1638,3.1672,3.1697,3.1735,3.1733,3.1749,3.1774,3.1801,3.1829,3.1798,3.1849,3.1851,3.1841,3.1884,3.1885,3.1928,3.1872,3.1873,3.1874,0,3.1395,3.1432,3.1494,3.1541,3.1557,3.1587,3.1631,3.1663,3.1702,3.1717,3.1747,3.1761,3.1803,3.1792,3.1851,3.183,3.1852,3.1869,3.1871,3.1878,3.1865,3.1894,3.1942,3.1949,3.1883,3.1883,3.1882,0,3.1407,3.1473,3.1519,3.1539,3.1593,3.1615,3.1638,3.1677,3.1703,3.1741,3.1759,3.1801,3.1824,3.1857,3.1883,3.1872,3.1941,3.1931,3.1956,3.1956,3.1971,3.197,3.2024,3.1982,3.1982,3.1982,3.1982,0,3.1445,3.1483,3.1526,3.1554,3.1598,3.1625,3.1668,3.1692,3.1727,3.1762,3.1778,3.181,3.1842,3.1878,3.1899,3.1947,3.1956,3.1971,3.1976,3.197,3.1969,3.1986,3.1985,3.1983,3.1983,3.1983,3.1982,0,3.1466,3.1496,3.1548,3.1597,3.161,3.164,3.1682,3.1711,3.1735,3.1779,3.1791,3.1828,3.1873,3.1902,3.1958,3.1972,3.2025,3.2028,3.2012,3.2015,3.2039,3.2037,3.2108,3.212,3.2068,3.2068,3.2068,0,3.149,3.152,3.1572,3.1597,3.1621,3.166,3.1688,3.1716,3.1744,3.1793,3.1817,3.1863,3.1901,3.1971,3.2004,3.2047,3.2053,3.2075,3.206,3.2054,3.2057,3.2055,3.206,3.2078,3.2079,3.2079,3.2079,0,3.1529,3.1543,3.1582,3.1627,3.1659,3.1696,3.1732,3.1752,3.1787,3.1817,3.1864,3.1894,3.1952,3.1998,3.2046,3.2071,3.2082,3.2084,3.2092,3.2088,3.2078,3.2086,3.2021,3.2082,3.2082,3.2082,3.2081,3.2081,3.1553,3.1582,3.1624,3.1668,3.1699,3.1734,3.1764,3.1793,3.1832,3.1883,3.1898,3.1947,3.1988,3.2053,3.2079,3.2118,3.2116,3.2127,3.2131,3.2134,3.2135,3.2071,3.2126,3.2126,3.2126,3.2126,3.2126,0,3.1596,3.1624,3.1664,3.1716,3.1751,3.1759,3.18,3.1829,3.1873,3.191,3.1948,3.2003,3.2049,3.2086,3.2133,3.2157,3.2164,3.2169,3.2168,3.2175,3.2133,3.2123,3.2163,3.2163,3.2163,3.2163,3.2163,3.2163,3.1622,3.1672,3.1691,3.1757,3.1786,3.1835,3.1858,3.1891,3.1922,3.1983,3.2021,3.2045,3.2083,3.2134,3.2177,3.2186,3.2204,3.2209,3.222,3.2181,3.2177,3.2173,3.2163,3.2212,3.2212,3.2258,3.2258,3.2259]}]]